Home   Weather   Penza   Past weeks

Flag for Russia Past Weather in Penza, Russia — Yesterday and Last 2 Weeks

Now
25 °F

Passing clouds.


Feels Like: 12 °F
Forecast: 15 / 20 °F
Wind: 15 mph from Northwest

Location: Saratov / Tsentralny

Current Time: Jan 21, 2017 at 5:12:40 am

Latest Report: Jan 21, 2017 at 4:30 am


Visibility: N/A

Pressure: 29.86 "Hg

Humidity: 86%

Dew Point: 21 °F

Location of PenzaLocation

Past Weather in Penza — Graph

°F

Penza Temperature Yesterday

Maximum temperature yesterday: 23 °F (at 8:00 pm)
Minimum temperature yesterday: 14 °F (at 5:00 am)
Average temperature yesterday: 18 °F

High & Low Weather Summary for the Past Weeks

 TemperatureHumidityPressure
High34 °F (Jan 6, 10:00 am)100% (Jan 6, 4:00 am)30.48 "Hg (Jan 6, 4:00 am)
Low0 °F (Jan 16, 7:00 pm)62% (Jan 20, 2:30 am)29.86 "Hg (Jan 20, 3:00 pm)
Average19 °F93%30.22 "Hg
* Reported Jan 6 4:00 am — Jan 21 4:00 am, Penza, Weather by CustomWeather, © 2017

Note: Actual official high and low records may vary slightly from our data, if they occured in-between our weather recording intervals... More about our weather records

Advertising

Penza Weather History for the Previous 24 Hours

Scroll right to see more
 ConditionsComfort  
Time TempWeatherWind HumidityBarometerVisibility
4:00 am
Sat, Jan 21
25 °FOvercast.15 mph86%29.86 "HgN/A
3:30 am25 °FPassing clouds.13 mph86%29.86 "HgN/A
3:00 am25 °FPassing clouds.13 mph86%29.86 "HgN/A
2:30 am25 °FLight snow. Overcast.13 mph86%29.86 "HgN/A
2:00 am25 °FLight snow. Mostly cloudy.13 mph86%29.86 "HgN/A
1:30 am25 °FOvercast.15 mph86%29.86 "HgN/A
1:00 am25 °FOvercast.15 mph86%29.86 "HgN/A
12:30 am25 °FMostly cloudy.15 mph86%29.89 "HgN/A
12:00 am25 °FMostly cloudy.15 mph86%29.89 "HgN/A
11:30 pm
Fri, Jan 20
23 °FMostly cloudy.13 mph86%29.89 "HgN/A
11:00 pm23 °FMostly cloudy.13 mph86%29.89 "HgN/A
10:30 pm23 °FMostly cloudy.10 mph86%29.89 "HgN/A
10:00 pm23 °FMostly cloudy.10 mph86%29.89 "HgN/A
9:30 pm23 °FMostly cloudy.10 mph86%29.86 "HgN/A
9:00 pm23 °FMostly cloudy.10 mph86%29.86 "HgN/A
8:30 pm23 °FOvercast.13 mph80%29.86 "HgN/A
8:00 pm23 °FOvercast.13 mph80%29.86 "HgN/A
7:30 pm21 °FOvercast.13 mph86%29.89 "HgN/A
7:00 pm21 °FOvercast.15 mph86%29.89 "HgN/A
6:30 pm19 °FOvercast.17 mph86%29.89 "HgN/A
6:00 pm19 °FOvercast.15 mph86%29.89 "HgN/A
5:30 pm19 °FOvercast.15 mph86%29.86 "HgN/A
5:00 pm19 °FOvercast.15 mph86%29.86 "HgN/A
4:30 pm19 °FOvercast.15 mph86%29.89 "HgN/A
4:00 pm19 °FOvercast.15 mph86%29.89 "HgN/A
3:30 pm19 °FOvercast.13 mph79%29.86 "HgN/A
3:00 pm19 °FOvercast.10 mph79%29.86 "HgN/A
2:30 pm18 °FLight snow. Overcast.15 mph86%29.89 "HgN/A
2:00 pm18 °FLight snow. Overcast.15 mph86%29.89 "HgN/A
1:30 pm18 °FLight snow. Overcast.13 mph79%29.89 "HgN/A
12:30 pm18 °FLight snow. Overcast.13 mph79%29.89 "HgN/A
12:00 pm18 °FLight snow. Overcast.13 mph79%29.89 "HgN/A
11:30 am18 °FLight snow. Overcast.13 mph79%29.95 "HgN/A
11:00 am18 °FLight snow. Mostly cloudy.10 mph79%29.95 "HgN/A
10:30 am16 °FLight snow. Mostly cloudy.13 mph86%29.95 "HgN/A
10:00 am16 °FLight snow. Mostly cloudy.13 mph86%29.95 "Hg2 mi
9:30 am16 °FMostly cloudy.13 mph79%29.98 "HgN/A
9:00 am16 °FMostly cloudy.13 mph79%29.98 "HgN/A
8:30 am16 °FMostly cloudy.10 mph79%29.98 "HgN/A
8:00 am16 °FMostly cloudy.13 mph79%29.98 "HgN/A
7:30 am14 °FPassing clouds.13 mph79%30.01 "HgN/A
7:00 am14 °FPassing clouds.13 mph79%30.01 "HgN/A
6:30 am14 °FPassing clouds.15 mph79%30.04 "HgN/A
6:00 am14 °FPassing clouds.15 mph79%30.04 "HgN/A
5:30 am14 °FPassing clouds.8 mph79%30.07 "HgN/A
5:00 am14 °FPassing clouds.8 mph79%30.07 "HgN/A
Weather by CustomWeather, © 2017

See weather overviewHow to use our weather pages